Other Public Products
Issued by NWS Charleston, SC

Current Version | Previous Version | Graphics & Text | Print | Product List | Glossary On
Versions: 1 2 3 4 5 6 7 8 9 10 11 12 13 14 15 16 17 18 19 20 21 22 23 24 25 26 27 28 29 30 31 32 33 34 35 36 37 38 39 40 41 42 43 44 45 46 47 48 49 50
688 FPUS82 KCHS 192327 OPUCHS TEST...KCHS/KSAV Gateway Observations...TEST National Weather Service Charleston SC 600 PM EST SUN FEB 19 2017 NOTE: "fair" indicates few or no clouds below 12,000 feet with no significant weather and/or obstructions to visibility. SCZ050-WAZ558-NCZ071-TXZ119-213-PAZ071-DCZ001-FLZ074-172-MI076- NYZ176-178-MAZ016-IL014-TNZ027-NJZ106-GAZ044-MD014-200000- ...Gateway Observations for Charleston International... CITY SKY/WX TMP DP RH WIND PRES REMARKS Chas Airport CLEAR 68 47 46 N9 30.01R Seattle CLOUDY 46 40 79 S12 29.49S Charlotte CLEAR 65 42 43 N5 30.03R Dallas DFW CLOUDY 76 66 71 SE17 29.82F Dallas Love CLOUDY 77 65 66 SE16 29.84S Philladelphia PTCLDY 66 33 29 W10 29.90R Wash National PTCLDY 67 38 34 NW16 29.95R Baltimore PTCLDY 64 40 41 W13 29.93R Miami MOCLDY 81 66 60 VRB5 30.01R Detroit MOCLDY 60 28 29 NW10 30.05R Newark CLEAR 62 29 28 NW7 29.87R Laguardia PTCLDY 60 31 33 NW9 29.86R J F K PTCLDY 61 30 31 NW9 29.87R Boston Logan PTCLDY 56 31 38 W7 29.79R Ft. Lauderdale PTCLDY 77 70 79 NE10 30.01R Chicago O`Hare PTCLDY 62 31 31 E8 30.05R Chicago Midway MOCLDY 58 31 35 E8 30.06R Houston Bush PTSUNNY 75 67 76 SE17 29.88R Houston Hobby CLOUDY 75 67 76 SE13 29.88R Nashville PTCLDY 67 49 52 CALM 30.12R Atlanta CLEAR 66 47 50 NW12 30.10R $$ GAZ044-118-TXZ119-213-NCZ071-DCZ001-MDZ014-506-PAZ021-071-NJZ106- NYZ176-178-MAZ106-OHZ011-021-055-MIZ076-KYZ091-ILZ014-INZ047- MNZ060-200000- ...Gateway Observations for Savannah International... CITY SKY/WX TMP DP RH WIND PRES REMARKS Savannah Arpt PTCLDY 73 48 41 NW6 30.03R Atlanta CLEAR 66 47 50 NW12 30.10R Charlotte CLEAR 65 42 43 N5 30.03R Dallas DFW CLOUDY 76 66 71 SE17 29.82F Houston Bush PTSUNNY 75 67 76 SE17 29.88R Wash National PTCLDY 67 38 34 NW16 29.95R Wash Dulles CLEAR 61 37 41 NW10 29.96R Baltimore PTCLDY 64 40 41 W13 29.93R Philadelphia PTCLDY 66 33 29 W10 29.90R Newark CLEAR 62 29 28 NW7 29.87R Laguardia PTCLDY 60 31 33 NW9 29.86R J F K PTCLDY 61 30 31 NW9 29.87R Boston PTCLDY 56 31 38 W7 29.79R Pittsburg PTCLDY 60 34 37 NW10 30.03R Akron PTCLDY 57 35 43 W8 30.06R Cleveland PTCLDY 58 34 40 W8 30.08R Cincinnati PTCLDY 56 47 71 S8 30.12R Columbus CLEAR 49 45 84 SW5 30.11S Detroit MOCLDY 60 28 29 NW10 30.05R Chicago O`Hare PTCLDY 62 31 31 E8 30.05R Minneapolis CLOUDY 56 40 55 SE14 29.88S Indianapolis PTCLDY 61 43 51 W6 30.09S $$

USA.gov is the U.S. government's official web portal to all federal, state and local government web resources and services.